This is the latest recevied weather packets stored in our database for station/object KG4GJX. If no packets are shown the sender has not sent any weather packets the latest 10 day(s).
| Time | Temp. | Humidity | Pressure | Rain* | Wind** | Luminosity | Snow |
|---|---|---|---|---|---|---|---|
| 1777404597 | 20° C | 93% | 1018.9 hPa | 0 mm | - | - | - |
| 1777403934 | 20.56° C | 91% | 1018.6 hPa | 0 mm | - | - | - |
| 1777396648 | 20° C | 91% | 1019.3 hPa | 0 mm | - | - | - |
| 1777395986 | 20° C | 92% | 1019.3 hPa | 0 mm | - | - | - |
| 1777393999 | 19.44° C | 98% | 1019.3 hPa | 0 mm | - | - | - |
| 1777392674 | 18.89° C | 100% | 1019.6 hPa | 0 mm | - | - | - |
| 1777390024 | 16.67° C | 100% | 1019.6 hPa | 0 mm | - | - | - |
| 1777389362 | 16.11° C | 100% | 1019.6 hPa | 0 mm | - | - | - |
| 1777388037 | 15° C | 100% | 1019.6 hPa | 0 mm | - | - | - |
| 1777385387 | 14.44° C | 100% | 1020.3 hPa | 0.25 mm | - | - | - |
| 1777383399 | 14.44° C | 100% | 1020.3 hPa | 2.03 mm | - | - | - |
| 1777382737 | 14.44° C | 100% | 1019.6 hPa | 1.78 mm | - | - | - |
| 1777382075 | 13.89° C | 100% | 1020.3 hPa | 1.78 mm | - | - | - |
| 1777380088 | 14.44° C | 100% | 1021.3 hPa | 0.25 mm | - | - | - |
| 1777378763 | 13.89° C | 100% | 1019.9 hPa | 1.02 mm | - | - | - |
| 1777378101 | 13.89° C | 100% | 1019.6 hPa | 2.03 mm | - | - | - |
| 1777377438 | 13.89° C | 100% | 1019.6 hPa | 3.05 mm | - | - | - |
| 1777376776 | 13.89° C | 100% | 1018.9 hPa | 4.06 mm | - | - | - |
| 1777375451 | 13.89° C | 100% | 1019.3 hPa | 5.59 mm | - | - | - |
| 1777374788 | 13.89° C | 100% | 1019.6 hPa | 6.1 mm | - | - | - |
| 1777373464 | 13.89° C | 100% | 1020.9 hPa | 12.95 mm | - | - | - |
| 1777372139 | 13.89° C | 100% | 1021.3 hPa | 18.54 mm | - | - | - |
| 1777371476 | 13.89° C | 100% | 1021.3 hPa | 19.05 mm | - | - | - |
| 1777370814 | 14.44° C | 100% | 1020.3 hPa | 14.22 mm | - | - | - |
| 1777370146 | 14.44° C | 100% | 1019.6 hPa | 14.22 mm | - | - | - |
* Rain latest hour (hover to see other rain measurements)
** Current wind speed in m/s (hover to see current wind gust speed)